Temperature
23 23 23 23 23 23 23 23 22 22 22 23 22 22 22 21 21 20 20 19 19 18 18 17 17 17 17 16 16 16 16 16 16 15 15 15 15 15 15 15 15 15 15 15
22 23 23 22 23 23 23 23 23 22 22 23 23 22 21 21 20 20 19 19 18 18 18 17 17 17 16 16 16 16 16 16 15 15 15 15 15 15 15 15 15 15 15 15
21 22 22 21 22 22 23 23 23 22 22 22 22 21 21 20 20 19 19 19 18 18 17 17 17 17 16 16 16 16 15 15 15 15 15 15 15 15 14 14 15 14 14 14
20 21 20 21 23 23 22 22 22 22 22 22 21 21 20 19 19 18 18 18 18 17 17 17 17 16 16 16 16 16 15 15 15 15 15 14 14 14 14 14 14 14 14 14
20 19 20 21 22 22 22 21 22 22 21 21 21 20 20 19 18 18 18 17 17 17 17 17 16 16 16 16 15 15 15 15 15 14 14 14 14 14 14 14 14 14 14 13
19 19 19 20 22 22 22 20 21 21 21 20 20 19 19 18 18 18 17 17 17 16 16 16 16 16 16 15 15 15 15 15 14 14 14 14 14 14 14 13 13 13 13 13
18 19 19 20 21 21 20 20 21 20 20 20 19 19 18 18 17 17 17 17 16 16 16 16 15 15 15 15 15 15 14 14 14 14 14 14 13 13 13 13 13 13 13 12
18 18 18 20 20 20 20 20 20 19 19 18 18 18 18 17 17 17 17 16 16 16 15 15 15 15 15 15 15 14 14 14 14 14 13 13 13 13 13 13 12 12 12 12
18 18 19 19 19 19 19 19 18 18 18 17 17 17 17 16 16 16 16 16 16 15 15 15 15 15 15 14 14 14 14 14 13 13 13 13 13 13 12 12 12 12 12 12
18 18 18 18 18 17 18 18 17 17 17 17 16 16 16 16 15 15 15 15 15 15 15 14 14 14 14 14 14 13 13 13 13 13 12 12 12 12 12 12 11 11 11 11
17 17 17 17 17 16 16 16 16 16 16 16 16 15 15 15 15 14 15 15 15 14 14 14 14 14 14 13 13 13 13 12 12 12 12 12 12 12 12 12 11 11 11 11
16 17 16 16 16 16 15 15 15 16 15 15 15 15 14 14 14 14 14 14 14 14 14 14 13 13 13 13 13 12 12 12 12 12 12 12 11 11 11 11 11 11 11 11
15 15 15 15 15 15 15 15 15 15 15 15 14 14 14 14 14 13 13 13 13 13 13 13 13 13 13 13 12 12 12 12 12 12 12 11 11 11 11 11 11 11 11 10
14 14 14 14 14 15 15 14 14 14 14 14 14 14 13 13 13 13 13 13 13 13 13 12 12 12 12 12 12 12 12 11 11 11 11 11 11 11 11 11 10 10 10 10
13 13 14 14 14 14 14 14 14 14 14 13 13 13 13 13 12 12 12 12 12 12 12 12 12 12 12 12 11 11 11 11 11 11 11 10 10 10 10 10 10 10 10 10
13 13 13 13 13 13 13 13 13 13 13 13 13 13 12 12 12 12 12 12 12 12 11 11 11 11 11 11 11 11 11 10 10 10 10 10 10 10 9 9 9 9 9 9
12 12 12 12 12 12 12 12 12 12 12 12 12 12 12 12 11 11 11 11 11 11 11 11 11 11 11 10 10 10 10 10 10 9 9 9 9 9 9 9 8 8 9 9
11 11 12 12 12 12 12 12 12 11 11 11 12 11 11 11 11 11 11 10 10 10 10 10 10 10 10 10 10 10 10 9 9 9 9 9 8 8 8 8 8 8 8 8
11 11 11 11 11 11 11 11 11 11 11 11 11 11 10 10 10 10 10 10 10 10 10 10 10 10 10 9 9 9 9 9 9 9 8 8 8 8 7 7 7 7 7 7
11 11 10 10 10 10 10 10 10 10 10 10 10 10 10 9 9 9 9 9 9 9 9 9 9 9 9 9 9 9 9 8 8 8 8 8 7 7 7 7 7 7 7 7
10 10 10 10 9 10 9 9 9 9 9 9 9 9 9 9 9 9 8 8 9 9 9 9 9 9 9 8 8 8 8 8 7 7 7 7 7 7 7 6 6 6 6 6
10 9 9 9 9 9 9 9 9 9 8 8 8 8 8 8 8 8 8 8 8 8 8 8 8 8 8 8 8 8 7 7 7 7 7 7 6 6 6 6 6 6 6 6
9 9 9 9 8 8 8 8 8 8 8 8 8 8 8 7 7 7 7 7 8 8 8 8 8 8 8 7 7 7 7 7 6 6 6 6 6 6 6 5 5 5 5 5
8 8 8 8 8 8 8 8 7 7 7 7 7 7 7 7 7 7 7 7 7 7 7 7 7 7 7 7 7 6 6 6 6 6 6 5 5 5 5 5 5 5 5 5
8 8 7 7 7 7 7 7 7 7 7 6 6 6 6 6 6 6 6 6 7 7 7 7 7 6 6 6 6 6 6 6 5 5 5 5 5 5 5 5 4 4 4 4
7 7 7 7 7 7 6 6 6 6 6 6 6 6 6 6 6 6 6 6 6 6 6 6 6 6 6 6 5 5 5 5 5 5 5 4 4 4 4 4 4 4 4 3
7 6 6 6 6 6 6 6 6 5 5 5 5 5 5 5 5 5 5 5 5 5 5 5 5 5 5 5 5 5 5 5 5 4 4 4 4 4 4 3 3 3 3 3
Wind_Speed
8 8 9 9 9 9 9 9 8 5 3 2 3 4 5 5 5 5 5 6 6 5 5 5 5 4 4 3 3 4 4 3 3 3 3 3 3 2 2 1 2 2 3 3
10 10 9 10 10 11 10 9 8 6 5 2 1 3 3 4 5 5 5 5 5 5 5 5 4 5 4 4 3 3 4 4 3 3 3 3 3 3 2 1 2 2 3 3
10 9 9 10 10 10 9 7 8 7 4 1 2 2 3 3 4 4 3 3 4 4 5 4 4 4 4 4 3 3 3 3 3 3 3 3 3 3 2 2 2 2 2 3
8 8 10 4 1 2 3 4 2 1 1 2 1 1 3 3 3 3 3 2 2 2 3 4 4 4 4 4 4 4 4 4 4 3 4 3 3 3 2 2 2 1 2 2
6 8 7 5 3 3 3 3 2 2 1 2 2 2 2 3 3 2 3 3 2 2 2 2 3 4 4 4 4 4 3 3 3 4 4 4 4 3 2 2 2 2 2 2
8 8 6 2 1 1 3 4 1 1 1 2 2 2 1 1 2 2 2 2 2 2 2 2 2 3 4 4 3 3 3 3 3 3 4 4 3 3 2 2 2 2 2 2
11 9 5 0 0 0 3 2 2 2 1 1 1 0 1 2 1 2 2 3 3 3 2 2 3 3 3 3 3 3 3 3 3 3 3 3 3 3 2 2 2 2 2 2
8 9 5 1 0 1 1 2 2 2 2 1 1 2 1 1 1 1 2 3 4 3 3 2 3 3 2 2 2 3 3 3 3 3 2 3 3 3 3 3 2 2 2 2
3 2 2 2 3 3 3 2 2 2 2 1 1 1 1 0 0 1 2 3 4 4 4 3 3 3 3 3 3 3 3 3 3 3 2 3 3 3 2 2 2 2 1 1
5 2 2 3 4 4 4 3 2 2 1 2 1 1 1 1 1 1 1 2 3 4 4 3 3 3 3 3 3 3 3 3 3 3 2 2 2 2 2 2 2 2 2 1
7 4 3 3 4 5 5 4 4 3 2 2 2 2 2 2 2 1 1 2 3 4 4 4 3 3 4 4 4 3 3 3 3 3 3 2 1 1 2 2 2 3 2 2
7 6 6 5 5 6 5 6 6 4 3 3 3 3 3 3 2 2 2 2 3 4 4 4 4 4 3 4 5 4 3 3 3 2 2 2 2 1 2 0 2 2 3 3
9 9 7 6 6 7 7 7 7 6 4 3 3 3 3 3 3 3 3 3 3 3 3 3 4 4 3 3 4 4 4 3 3 3 3 3 3 3 1 1 1 1 2 3
8 8 8 6 7 6 6 6 5 5 4 3 3 2 2 2 3 2 2 2 3 3 3 2 2 2 3 3 4 4 4 4 3 3 3 3 3 3 3 3 2 1 1 3
8 9 8 6 6 6 5 5 4 4 4 3 2 2 3 3 2 2 2 2 2 3 3 3 3 3 3 3 3 4 3 3 3 3 3 3 2 2 2 3 3 2 1 1
8 8 7 6 7 6 5 5 5 5 4 3 3 3 3 3 2 2 2 2 2 2 3 3 3 2 3 3 3 3 3 4 4 3 2 2 2 2 2 2 2 3 3 3
8 7 7 6 6 6 5 5 5 5 4 3 2 1 2 2 2 2 2 2 2 2 1 2 2 2 2 3 3 2 2 3 5 3 3 2 2 2 2 2 2 2 3 3
7 7 7 6 6 6 5 5 5 4 3 3 2 1 2 2 3 3 3 2 1 1 1 1 1 2 2 3 2 2 2 3 3 3 3 2 2 2 2 2 2 2 2 2
7 7 6 6 5 5 5 4 4 3 2 2 2 2 2 2 3 2 2 2 2 2 2 1 2 2 2 2 3 2 2 2 2 2 2 3 3 2 2 2 2 2 2 2
5 4 4 4 4 4 4 3 3 3 2 2 3 2 2 2 2 2 2 3 2 2 1 1 2 2 2 2 2 2 2 2 2 2 2 2 2 2 2 2 2 2 2 2
3 3 3 3 3 3 2 2 2 2 2 2 2 2 2 1 1 2 2 2 1 1 1 2 2 2 2 2 2 2 2 2 2 2 2 2 2 2 3 3 2 2 2 2
3 2 2 2 2 2 2 2 2 2 1 2 2 1 1 1 1 1 2 2 1 2 1 2 2 2 2 2 2 2 3 3 2 2 2 2 2 3 3 3 2 2 2 2
3 2 2 2 2 2 2 2 1 1 1 1 2 1 1 1 1 1 2 1 1 2 2 2 2 2 2 2 2 2 2 2 2 2 2 2 2 3 2 2 2 2 1 1
3 2 2 2 2 2 2 2 2 1 1 1 1 1 1 1 1 1 0 0 0 1 1 2 3 3 3 2 2 2 2 2 2 2 2 2 2 2 2 2 2 2 2 2
3 3 3 2 3 2 2 2 2 1 1 1 1 1 1 1 1 1 1 1 1 1 1 2 4 5 3 2 2 2 2 3 3 2 2 2 2 2 2 2 2 2 2 2
2 2 2 2 2 2 2 2 1 1 2 2 1 1 1 1 1 1 1 1 1 1 1 1 2 3 3 2 2 2 2 3 3 3 3 2 2 2 2 2 3 3 3 3
2 2 1 1 2 1 2 2 2 2 2 2 2 2 2 2 1 1 1 1 1 1 1 1 2 2 2 2 3 3 3 3 3 2 2 2 2 3 3 4 3 3 3 3
Wind_Direction
272 278 275 268 264 257 251 257 265 265 262 211 169 147 138 138 135 137 139 141 142 146 147 152 157 157 155 151 151 154 151 159 168 160 144 139 143 146 139 147 147 137 128 121
271 269 270 269 264 257 254 259 258 262 276 275 136 124 124 128 132 135 145 149 145 148 146 152 156 157 155 156 159 158 159 156 153 146 141 144 145 131 114 99 97 87 102 113
272 267 268 262 254 243 240 245 249 248 249 120 110 128 136 134 131 138 139 148 155 162 158 156 157 158 158 161 157 152 154 146 142 136 134 140 134 120 120 116 101 92 98 107
272 269 253 252 308 244 249 254 259 232 176 155 141 154 130 125 127 127 123 119 135 155 156 158 155 149 149 151 152 156 151 147 138 141 139 138 134 133 144 125 122 135 141 136
260 259 261 255 244 235 238 250 247 223 204 123 118 142 132 100 108 123 140 144 144 147 140 136 139 142 140 139 142 140 138 142 145 146 146 147 149 151 151 141 143 161 158 138
257 260 262 263 172 244 237 239 234 172 144 110 136 191 177 109 113 123 121 131 136 140 131 136 132 136 147 147 143 146 149 154 147 145 148 154 159 159 153 147 160 162 173 178
251 258 263 275 30 1 238 236 93 92 114 156 193 26 93 95 90 123 135 141 134 140 138 154 144 132 146 151 161 158 148 149 143 139 147 154 155 151 150 158 162 168 186 193
243 248 248 75 251 244 355 40 60 67 61 32 42 36 74 88 84 124 149 152 149 147 154 157 146 147 159 162 158 133 129 135 142 145 161 158 149 156 166 164 163 180 197 205
263 259 358 6 1 2 11 358 11 23 40 15 8 355 28 16 286 202 181 169 160 160 163 161 160 162 171 163 145 141 144 153 158 156 161 153 151 160 164 153 165 198 205 193
272 248 279 319 344 349 343 341 343 334 330 318 316 314 307 259 273 257 192 182 167 164 167 178 180 174 168 156 154 160 166 166 162 155 150 145 143 159 169 179 191 200 197 202
277 275 291 300 315 317 323 321 306 299 288 282 273 268 273 267 269 260 250 213 185 180 181 188 185 187 171 159 164 179 185 171 163 159 161 162 142 150 181 199 196 190 199 201
277 282 282 277 292 303 304 298 296 286 266 250 246 253 257 255 254 249 237 222 204 191 186 192 192 194 179 169 177 189 193 174 169 165 158 159 145 91 41 163 180 172 186 196
287 301 302 296 288 287 286 286 289 287 268 250 243 250 252 252 253 244 241 223 213 205 196 202 199 192 183 184 190 196 189 179 169 169 171 176 175 172 167 12 35 245 224 200
296 301 297 298 298 295 293 292 286 286 275 254 245 251 254 260 251 241 238 221 211 199 198 207 208 201 189 195 195 195 191 186 181 178 178 186 191 190 190 195 213 263 262 211
286 289 286 292 298 297 299 302 298 287 275 252 231 229 228 240 242 239 233 224 210 199 202 206 211 206 194 202 205 200 192 184 178 177 177 184 184 189 202 206 202 201 197 223
283 286 287 287 289 291 292 292 294 292 286 269 235 220 222 226 232 223 210 210 210 207 203 208 210 203 197 200 207 202 196 187 172 169 181 184 179 189 202 202 199 196 201 203
276 274 277 282 287 290 290 290 289 292 295 294 269 211 204 215 216 212 217 221 215 199 195 197 203 195 200 197 193 195 188 180 176 179 191 192 191 200 205 201 209 220 217 205
274 272 269 277 285 292 293 290 291 299 301 304 308 240 216 223 223 223 220 211 204 219 235 208 204 203 199 189 190 185 176 179 186 191 191 190 196 198 207 209 215 229 231 213
274 276 282 285 287 288 291 292 296 296 296 296 288 259 234 238 235 222 214 207 212 226 244 234 216 207 203 184 171 168 178 187 195 200 193 194 195 198 204 214 223 219 212 216
281 283 287 299 301 293 293 299 308 310 310 292 284 270 247 244 240 225 215 216 212 214 202 206 216 202 195 176 164 167 176 191 198 198 197 196 199 206 213 221 225 223 219 220
286 290 294 298 307 309 299 294 297 297 303 297 286 278 267 268 241 234 231 233 234 207 206 208 208 200 181 171 171 178 182 194 200 201 210 219 223 226 225 221 226 231 226 221
292 288 289 293 304 305 296 288 292 295 298 302 308 313 315 308 252 237 237 234 209 190 206 209 192 175 174 180 189 192 196 200 205 205 211 222 234 242 241 236 234 237 231 223
303 299 293 290 292 296 299 298 298 301 301 291 295 299 279 273 251 229 247 255 202 188 201 190 174 176 189 200 199 196 198 204 209 212 214 221 234 242 243 244 249 247 238 233
308 310 307 306 303 298 295 303 307 314 316 298 293 306 304 297 284 259 237 219 170 166 190 177 183 192 198 211 207 200 201 208 217 222 225 233 238 238 239 242 241 241 240 240
295 294 293 297 295 296 298 303 311 319 311 316 310 303 296 285 272 272 251 219 179 174 207 199 203 207 209 214 210 210 212 220 225 227 224 235 239 235 232 233 237 238 232 237
269 275 281 287 295 302 299 295 297 304 309 307 303 312 312 301 284 280 274 248 196 211 229 215 209 203 207 215 216 219 225 234 236 234 234 240 242 240 242 243 245 245 241 241
267 262 264 273 286 286 283 283 285 293 298 299 301 317 317 310 299 278 262 255 224 212 215 210 217 218 216 218 220 224 231 233 229 227 233 238 239 239 239 243 246 246 248 248
Height
1485 1483 1483 1484 1484 1483 1486 1488 1494 1492 1491 1489 1490 1492 1495 1497 1500 1502 1504 1507 1509 1511 1513 1515 1516 1518 1519 1520 1522 1523 1524 1525 1526 1528 1530 1531 1533 1535 1536 1537 1538 1539 1540 1540
1487 1483 1482 1483 1482 1482 1483 1484 1486 1488 1491 1487 1488 1491 1494 1497 1499 1501 1503 1505 1508 1510 1511 1513 1515 1516 1517 1518 1520 1521 1522 1524 1525 1526 1528 1529 1531 1533 1534 1535 1536 1537 1538 1539
1492 1484 1483 1488 1480 1480 1480 1480 1483 1489 1488 1486 1489 1491 1494 1496 1498 1500 1502 1504 1506 1508 1510 1511 1513 1514 1515 1516 1518 1519 1521 1522 1523 1525 1526 1527 1529 1530 1532 1533 1534 1535 1536 1537
1493 1491 1499 1484 1473 1474 1477 1479 1480 1482 1484 1486 1489 1491 1493 1495 1497 1499 1501 1503 1504 1506 1508 1509 1511 1512 1514 1515 1516 1517 1519 1520 1521 1522 1524 1525 1527 1528 1529 1531 1532 1532 1534 1535
1493 1495 1488 1480 1475 1475 1479 1482 1480 1482 1483 1485 1487 1489 1492 1494 1496 1498 1500 1501 1503 1504 1506 1507 1509 1510 1512 1513 1514 1515 1516 1518 1519 1520 1522 1523 1524 1526 1527 1528 1529 1530 1531 1532
1491 1495 1495 1483 1474 1474 1478 1484 1480 1481 1483 1485 1487 1491 1493 1493 1495 1496 1498 1500 1501 1503 1504 1505 1507 1509 1510 1511 1512 1513 1514 1515 1517 1518 1519 1520 1522 1523 1524 1526 1527 1528 1529 1530
1491 1492 1486 1477 1475 1476 1487 1485 1480 1481 1484 1486 1488 1490 1492 1492 1494 1495 1496 1498 1499 1501 1502 1503 1505 1506 1508 1509 1510 1511 1512 1513 1514 1516 1517 1518 1519 1521 1522 1523 1524 1525 1527 1528
1487 1492 1490 1477 1477 1480 1482 1480 1480 1482 1484 1486 1488 1489 1490 1491 1492 1493 1495 1496 1497 1499 1500 1502 1503 1504 1505 1506 1508 1509 1510 1511 1512 1513 1515 1516 1517 1518 1520 1521 1522 1523 1524 1525
1484 1486 1480 1479 1480 1480 1481 1481 1482 1483 1485 1486 1487 1488 1489 1490 1491 1492 1493 1494 1495 1497 1498 1499 1501 1502 1503 1504 1505 1506 1507 1508 1509 1511 1512 1514 1515 1515 1517 1518 1519 1520 1521 1523
1480 1480 1480 1481 1481 1481 1481 1482 1483 1483 1484 1485 1486 1487 1488 1489 1489 1490 1491 1492 1493 1494 1495 1497 1498 1499 1501 1502 1502 1503 1504 1505 1507 1508 1509 1511 1512 1513 1514 1515 1516 1517 1518 1519
1480 1480 1480 1481 1481 1481 1481 1481 1481 1482 1482 1483 1484 1485 1486 1487 1487 1488 1488 1489 1490 1491 1492 1494 1495 1497 1498 1499 1500 1501 1502 1503 1504 1505 1506 1507 1509 1510 1511 1512 1513 1514 1514 1516
1483 1481 1481 1480 1480 1480 1480 1480 1480 1480 1480 1481 1482 1482 1483 1484 1484 1485 1485 1486 1487 1488 1489 1491 1492 1494 1495 1496 1497 1498 1499 1500 1500 1501 1503 1504 1505 1506 1507 1509 1510 1510 1511 1512
1481 1480 1479 1478 1478 1478 1478 1477 1477 1477 1477 1477 1478 1480 1480 1481 1481 1482 1482 1483 1484 1485 1486 1487 1489 1490 1491 1493 1494 1495 1496 1496 1497 1498 1499 1500 1501 1502 1503 1504 1505 1507 1507 1508
1479 1478 1477 1476 1476 1475 1475 1474 1473 1473 1474 1474 1475 1476 1477 1477 1478 1478 1479 1479 1480 1481 1482 1484 1485 1486 1487 1489 1490 1491 1492 1493 1494 1495 1495 1496 1497 1498 1499 1500 1500 1501 1503 1504
1477 1476 1475 1474 1474 1473 1472 1471 1471 1470 1471 1471 1471 1472 1473 1473 1474 1475 1475 1476 1477 1478 1479 1480 1481 1482 1484 1485 1486 1487 1488 1489 1490 1491 1492 1492 1493 1494 1495 1496 1496 1497 1498 1499
1474 1473 1472 1472 1471 1470 1469 1469 1468 1468 1468 1468 1468 1469 1469 1470 1471 1472 1472 1473 1473 1474 1475 1476 1477 1479 1480 1481 1482 1483 1484 1485 1486 1487 1488 1489 1489 1490 1491 1492 1493 1493 1494 1495
1470 1469 1468 1468 1467 1467 1467 1466 1466 1466 1465 1465 1465 1465 1466 1467 1468 1469 1469 1470 1471 1471 1472 1473 1474 1475 1476 1477 1478 1479 1480 1481 1483 1484 1484 1485 1485 1486 1487 1488 1489 1489 1490 1491
1467 1466 1466 1465 1465 1464 1464 1464 1464 1463 1463 1463 1463 1463 1463 1464 1465 1465 1466 1467 1468 1468 1469 1470 1470 1471 1472 1473 1474 1475 1476 1477 1479 1480 1480 1481 1482 1483 1484 1484 1485 1485 1486 1487
1462 1462 1462 1462 1462 1462 1461 1461 1460 1460 1460 1460 1460 1460 1460 1461 1462 1462 1463 1464 1464 1464 1465 1466 1467 1468 1468 1469 1470 1471 1472 1474 1475 1476 1477 1477 1478 1479 1480 1480 1481 1481 1482 1483
1459 1459 1459 1458 1458 1458 1458 1458 1458 1457 1457 1457 1457 1457 1457 1458 1459 1459 1460 1460 1460 1461 1462 1463 1463 1464 1464 1465 1466 1467 1468 1469 1471 1472 1473 1474 1474 1475 1475 1476 1477 1477 1478 1478
1456 1456 1456 1456 1456 1455 1455 1455 1455 1455 1454 1454 1454 1453 1454 1454 1455 1456 1456 1456 1457 1458 1458 1459 1459 1460 1461 1461 1462 1463 1464 1465 1467 1467 1468 1470 1470 1471 1471 1471 1472 1473 1473 1473
1454 1454 1454 1454 1454 1453 1453 1453 1453 1452 1452 1452 1451 1451 1451 1451 1452 1452 1453 1453 1453 1454 1454 1455 1455 1456 1457 1458 1458 1459 1460 1461 1463 1463 1464 1465 1466 1466 1467 1467 1467 1468 1468 1468
1452 1452 1452 1452 1451 1451 1451 1451 1451 1450 1449 1449 1449 1449 1448 1448 1449 1449 1449 1450 1450 1450 1450 1451 1452 1453 1453 1454 1455 1455 1456 1457 1458 1459 1460 1461 1461 1462 1462 1462 1462 1462 1463 1463
1450 1450 1450 1450 1449 1449 1449 1449 1448 1448 1447 1447 1447 1446 1446 1446 1446 1446 1446 1446 1446 1446 1446 1447 1448 1449 1450 1451 1451 1452 1453 1454 1454 1455 1456 1456 1457 1457 1457 1457 1457 1457 1457 1458
1448 1448 1448 1447 1447 1447 1447 1447 1446 1445 1445 1444 1444 1444 1444 1444 1444 1443 1443 1443 1443 1443 1443 1444 1445 1446 1446 1447 1448 1448 1449 1450 1450 1451 1451 1451 1451 1451 1452 1452 1452 1452 1452 1452
1445 1445 1445 1445 1445 1444 1444 1444 1443 1443 1443 1442 1442 1442 1441 1441 1441 1440 1440 1440 1440 1440 1440 1440 1441 1442 1442 1443 1444 1444 1445 1445 1446 1446 1446 1446 1446 1447 1447 1447 1447 1447 1447 1446
1443 1443 1443 1442 1442 1442 1442 1442 1441 1441 1441 1440 1439 1439 1439 1438 1438 1437 1437 1437 1437 1437 1437 1437 1437 1438 1438 1439 1440 1440 1441 1441 1441 1441 1441 1441 1441 1441 1441 1441 1441 1441 1441 1441